Miscellaneous Local Product
Issued by NWS North Platte, NE

Home | Current Version | Previous Version | Text Only | Print | Product List | Glossary On
Versions: 1 2 3 4 5 6 7 8 9 10 11 12 13 14 15 16 17 18 19 20 21 22 23 24 25 26 27 28 29 30 31 32 33 34 35 36 37 38 39 40 41 42 43 44 45 46 47 48 49 50
000
AXUS43 KLBF 230310
MISLBF


WESTERN AND NORTH CENTRAL NEBRASKA HOURLY WEATHER ROUNDUP
NATIONAL WEATHER SERVICE NORTH PLATTE NE
900 PM CST SUN JAN 22 2017

NOTE: "FAIR" INDICATES FEW OR NO CLOUDS BELOW 12,000 FEET WITH NO
SIGNIFICANT WEATHER AND/OR OBSTRUCTIONS TO VISIBILITY.

NOTE: STATIONS NOT REPORTING VARIABLES SUCH AS SKY/WEATHER OR
PRESSURE ARE PROVIDED BY RAWS AND APRS NETWORKS AND ARE NOT UNDER
NATIONAL WEATHER SERVICE QUALITY CONTROL.

...OBSERVATIONS IN AND NEAR THE EASTERN PANHANDLE OF NEBRASKA...

CITY           SKY/WX    TMP DP  RH WIND       PRES   REMARKS
PINE RIDGE     CLEAR     21  18  88 CALM      29.85F
CHADRON        CLEAR     25  21  85 S3        29.86F
ALLIANCE       CLEAR     21  17  84 W6        29.86F WCI  13
SIDNEY         CLEAR     20  16  84 W8        29.89F WCI  10
CRESCENT LAKE    N/A     29  19  66 W6          N/A  WCI  23
$$

...OBSERVATIONS IN NORTHERN NEBRASKA AND FAR SOUTHERN SOUTH DAKOTA...

CITY           SKY/WX    TMP DP  RH WIND       PRES   REMARKS
WINNER         MOCLDY    23  21  92 SW3       29.90S
VALENTINE      CLEAR     21  18  88 CALM      29.87F
THEDFORD       CLEAR     28  24  84 W5        29.90R WCI  23
AINSWORTH      CLEAR     25  22  90 W6        29.87F WCI  18
O`NEILL        CLEAR     27  25  93 N5        29.89R WCI  22
ORD            CLEAR     28  23  81 NW5       29.88R WCI  23
BROKEN BOW     CLEAR     32  25  75 N3        29.88R
VALENTINE NWR    N/A     27  23  83 CALM        N/A
BUTTE            N/A     26  24  91 NW7G14      N/A  WCI  18
HALSEY           N/A     50  23  34 CALM        N/A
CHAMBERS         N/A     26  20  77 CALM        N/A
EWING            N/A     28  25  87 NW3         N/A
$$

...OBSERVATIONS IN SOUTHWEST NEBRASKA AND FAR NORTHEAST COLORADO...

CITY           SKY/WX    TMP DP  RH WIND       PRES   REMARKS
HOLYOKE        FAIR      32  25  74 W5        29.92S WCI  27
IMPERIAL       CLEAR     31  25  78 W5        29.91S WCI  26
OGALLALA       CLEAR     27  23  85 W7        29.91R WCI  19
NORTH PLATTE   CLEAR     26  22  84 NW6       29.90R WCI  19
MCCOOK         CLEAR     31  25  78 W8        29.90S WCI  23
LEXINGTON      CLEAR     30  26  84 W8        29.90R WCI  23
STAPLETON        N/A     32  25  74 CALM        N/A
GOTHENBURG       N/A     33  23  68 NW3         N/A
CALLAWAY         N/A     26  22  86 CALM        N/A
$$

...OBSERVATIONS IN CENTRAL LINCOLN COUNTY AREA...

CITY           SKY/WX    TMP DP  RH WIND       PRES   REMARKS
N.P. AIRPORT   CLEAR     26  22  84 NW6       29.90R WCI  19
N.P. DOWNTOWN    N/A     31  26  81 CALM        N/A
N.P. SOUTHEAST   N/A     32  25  76 CALM        N/A
N.P. HILLCREST   N/A     35  27  71 CALM        N/A
$$

...SOME OBSERVATIONS FROM AROUND THE REGION...

CITY           SKY/WX    TMP DP  RH WIND       PRES   REMARKS
LARAMIE        CLOUDY    21   8  57 S9        29.79F WCI  11
CHEYENNE       CLOUDY    26  12  55 SW7       29.84F WCI  18
DENVER         CLOUDY    33  15  47 SE13      29.83F WCI  24
AKRON          CLEAR     30  15  53 S5        29.91S WCI  25
SCOTTSBLUFF    CLOUDY    27  19  72 S3        29.86F
RAPID CITY     CLEAR     27  20  75 E3        29.82F
BISMARCK       CLOUDY    32  26  78 W8        29.84S WCI  25
PIERRE         CLOUDY    28  24  85 W6        29.87F WCI  22
SIOUX FALLS    CLOUDY    31  28  89 NW14      29.85S WCI  21
OMAHA          CLEAR     32  27  81 N8        29.88S WCI  25
GRAND ISLAND   CLEAR     31  28  89 NW6       29.89R WCI  25
KANSAS CITY    CLOUDY    38  32  79 NW13      29.84S WCI  30
WICHITA        CLEAR     40  30  67 N6        29.91R
OKLAHOMA CITY  CLEAR     45  32  60 NW10      29.92R
DALLAS         CLEAR     56  38  50 NW14      29.89R
AMARILLO       CLEAR     40  26  57 NE5       30.00S
DODGE CITY     CLEAR     33  24  69 W7        29.95R WCI  27
HAYS           CLEAR     34  25  69 NW3       29.92R
GOODLAND       CLEAR     30  23  75 W10       29.93R WCI  21
$$




USA.gov is the U.S. government's official web portal to all federal, state and local government web resources and services.